Weather History for West Palm Beach, FL

Change the Weather History Date:

Tuesday, December 3, 2013

  Actual Average Record
Temperature  
Mean Temperature 69 °F 70 °F  
Max Temperature 79 °F 78 °F 87 °F (1948)
Min Temperature 58 °F 62 °F 43 °F (1903)
Degree Days  
Heating Degree Days 0 1  
Month to date heating degree days 0 3  
Since 1 July heating degree days 4 15  
Cooling Degree Days 4 6  
Month to date cooling degree days 13 18  
Year to date cooling degree days 4214 3884  
Growing Degree Days 18 (Base 50)    
Moisture  
Dew Point 61 °F    
Average Humidity 72    
Maximum Humidity 93    
Minimum Humidity 50    
Precipitation  
Precipitation 0.00 in 0.11 in 1.04 in (1905)
Month to date precipitation 3.01 0.34  
Year to date precipitation 63.65 59.29  
Snow  
Snow 0.00 in - - ()
Month to date snowfall 0.0  
Since 1 July snowfall 0.0  
Snow Depth 0.00 in    
Sea Level Pressure  
Sea Level Pressure 29.95 in    
Wind  
Wind Speed 3 mph (South)    
Max Wind Speed 10 mph    
Max Gust Speed 20 mph    
Visibility 10 miles    
Events      
T = Trace of Precipitation, MM = Missing Value Source: NWS Daily Summary

Daily Weather History Graph

Daily Weather History Graph

Search for Another Location

Airport:

Trip Planner

Search our weather history database for the weather conditions in past years. The results will help you decide how hot, cold, wet, or windy it might be!

Date:

Astronomy

Dec. 03, 2013 Rise Set
Actual Time 6:53 AM EST 5:27 PM EST
Civil Twilight 6:28 AM EST 5:52 PM EST
Nautical Twilight 5:59 AM EST 6:21 PM EST
Astronomical Twilight 5:31 AM EST 6:49 PM EST
Moon 7:23 AM EST (12/3) 6:26 PM EST (12/3)
Length of Visible Light 11h 24m
Length of Day
10h 33m
New Moon, 1% of the Moon is Illuminated
Dec 3
New Moon
Dec 9
First Quarter
Dec 17
Full
Dec 25
Last Quarter
Jan 1
New

Hourly Weather History & Observations

Time (EST) Temp. Dew Point Humidity Pressure Visibility Wind Dir Wind Speed Gust Speed Precip Events Conditions
12:36 AM 59.0 °F 57.2 °F 94% 29.90 in 8.0 mi Calm Calm - N/A   Scattered Clouds
12:53 AM 59.0 °F 57.0 °F 93% 29.90 in 10.0 mi Calm Calm - N/A   Partly Cloudy
1:53 AM 60.1 °F 57.9 °F 93% 29.91 in 10.0 mi West 4.6 mph - N/A   Mostly Cloudy
2:53 AM 63.0 °F 61.0 °F 93% 29.91 in 10.0 mi Calm Calm - N/A   Overcast
3:53 AM 64.0 °F 61.0 °F 90% 29.91 in 10.0 mi West 3.5 mph - N/A   Overcast
4:53 AM 64.0 °F 61.0 °F 90% 29.92 in 10.0 mi Calm Calm - N/A   Overcast
5:53 AM 64.0 °F 61.0 °F 90% 29.93 in 10.0 mi Calm Calm - N/A   Overcast
6:53 AM 64.0 °F 62.1 °F 93% 29.95 in 9.0 mi NW 4.6 mph - N/A   Overcast
7:53 AM 64.9 °F 62.1 °F 90% 29.97 in 10.0 mi Calm Calm - N/A   Mostly Cloudy
8:53 AM 68.0 °F 63.0 °F 84% 29.99 in 10.0 mi Calm Calm - N/A   Mostly Cloudy
9:53 AM 73.0 °F 60.1 °F 64% 30.00 in 10.0 mi Calm Calm - N/A   Mostly Cloudy
10:53 AM 75.0 °F 59.0 °F 57% 29.99 in 10.0 mi Calm Calm - N/A   Mostly Cloudy
11:53 AM 77.0 °F 57.9 °F 52% 29.97 in 10.0 mi South 5.8 mph - N/A   Mostly Cloudy
12:53 PM 77.0 °F 57.0 °F 50% 29.95 in 10.0 mi SSW 4.6 mph - N/A   Mostly Cloudy
1:53 PM 79.0 °F 59.0 °F 50% 29.95 in 10.0 mi SE 5.8 mph - N/A   Mostly Cloudy
2:53 PM 78.1 °F 60.1 °F 54% 29.93 in 10.0 mi SE 8.1 mph - N/A   Mostly Cloudy
3:53 PM 78.1 °F 60.1 °F 54% 29.93 in 10.0 mi SE 6.9 mph - N/A   Scattered Clouds
4:53 PM 75.9 °F 61.0 °F 60% 29.93 in 10.0 mi SE 6.9 mph - N/A   Scattered Clouds
5:53 PM 73.9 °F 62.1 °F 66% 29.95 in 10.0 mi SE 3.5 mph - N/A   Scattered Clouds
6:53 PM 73.0 °F 62.1 °F 68% 29.96 in 10.0 mi SSE 3.5 mph - N/A   Scattered Clouds
7:53 PM 73.9 °F 63.0 °F 68% 29.98 in 10.0 mi SE 3.5 mph - N/A   Scattered Clouds
8:53 PM 73.0 °F 63.0 °F 71% 29.99 in 10.0 mi South 3.5 mph - N/A   Scattered Clouds
9:53 PM 73.0 °F 63.0 °F 71% 30.00 in 10.0 mi South 4.6 mph - N/A   Scattered Clouds
10:53 PM 71.1 °F 63.0 °F 75% 30.00 in 10.0 mi South 4.6 mph - N/A   Scattered Clouds
11:53 PM 70.0 °F 64.0 °F 81% 30.00 in 10.0 mi SSW 3.5 mph - N/A   Scattered Clouds